Time,TemperatureF,DewpointF,PressureIn,WindDirection,WindDirectionDegrees,WindSpeedMPH,WindSpeedGustMPH,Humidity,HourlyPrecipIn,Conditions,Clouds,dailyrainin,SoftwareType,DateUTC
2013-03-10 00:01:00,52.0,33.0,30.25,NNE,19,1.0,2.0,49,0.00,,,0.00,,2013-03-10 08:01:00,
2013-03-10 00:11:00,51.0,34.0,30.26,North,4,0.0,1.0,52,0.00,,,0.00,,2013-03-10 08:11:00,
2013-03-10 00:21:00,51.0,34.0,30.26,North,4,0.0,1.0,52,0.00,,,0.00,,2013-03-10 08:21:00,
2013-03-10 00:31:00,50.0,34.0,30.26,North,5,0.0,1.0,54,0.00,,,0.00,,2013-03-10 08:31:00,
2013-03-10 00:42:00,49.0,34.0,30.27,East,82,0.0,0.0,56,0.00,,,0.00,,2013-03-10 08:42:00,
2013-03-10 00:51:00,49.0,34.0,30.27,East,82,0.0,0.0,56,0.00,,,0.00,,2013-03-10 08:51:00,
2013-03-10 01:01:00,48.0,34.0,30.27,East,82,0.0,1.0,58,0.00,,,0.00,,2013-03-10 09:01:00,
2013-03-10 01:11:00,48.0,36.0,30.28,SE,124,0.0,1.0,62,0.00,,,0.00,,2013-03-10 09:11:00,
2013-03-10 01:21:00,48.0,36.0,30.28,SE,124,0.0,1.0,62,0.00,,,0.00,,2013-03-10 09:21:00,
2013-03-10 01:31:00,47.0,35.0,30.28,SE,127,0.0,2.0,63,0.00,,,0.00,,2013-03-10 09:31:00,
2013-03-10 01:41:00,47.0,35.0,30.28,ESE,105,1.0,3.0,63,0.00,,,0.00,,2013-03-10 09:41:00,
2013-03-10 01:51:00,47.0,35.0,30.28,ESE,105,1.0,3.0,63,0.00,,,0.00,,2013-03-10 09:51:00,
2013-03-10 03:01:00,46.0,35.0,30.28,SSE,153,0.0,3.0,66,0.00,,,0.00,,2013-03-10 10:01:00,
2013-03-10 03:11:00,46.0,35.0,30.28,SSE,153,0.0,3.0,66,0.00,,,0.00,,2013-03-10 10:11:00,
2013-03-10 03:21:00,45.0,35.0,30.29,SE,129,0.0,1.0,69,0.00,,,0.00,,2013-03-10 10:21:00,
2013-03-10 03:31:00,46.0,36.0,30.29,SW,226,0.0,1.0,68,0.00,,,0.00,,2013-03-10 10:31:00,
2013-03-10 03:41:00,47.0,38.0,30.29,WSW,253,2.0,4.0,72,0.00,,,0.00,,2013-03-10 10:41:00,
2013-03-10 03:51:00,47.0,38.0,30.29,WSW,253,2.0,4.0,72,0.00,,,0.00,,2013-03-10 10:51:00,
2013-03-10 04:01:00,47.0,38.0,30.30,WSW,252,0.0,1.0,71,0.00,,,0.00,,2013-03-10 11:01:00,
2013-03-10 04:11:00,46.0,38.0,30.30,SE,144,0.0,1.0,74,0.00,,,0.00,,2013-03-10 11:11:00,
2013-03-10 04:21:00,46.0,38.0,30.30,SE,144,0.0,1.0,74,0.00,,,0.00,,2013-03-10 11:21:00,
2013-03-10 04:31:00,45.0,38.0,30.30,SE,143,0.0,0.0,77,0.00,,,0.00,,2013-03-10 11:31:00,
2013-03-10 04:42:00,45.0,38.0,30.30,SE,143,0.0,0.0,77,0.00,,,0.00,,2013-03-10 11:42:00,
2013-03-10 04:52:00,44.0,38.0,30.29,SE,143,0.0,1.0,79,0.00,,,0.00,,2013-03-10 11:52:00,
2013-03-10 05:01:00,44.0,39.0,30.29,SE,131,0.0,2.0,83,0.00,,,0.00,,2013-03-10 12:01:00,
2013-03-10 05:11:00,44.0,39.0,30.29,SE,131,0.0,2.0,83,0.00,,,0.00,,2013-03-10 12:11:00,
2013-03-10 05:21:00,43.0,39.0,30.29,SE,131,0.0,1.0,85,0.00,,,0.00,,2013-03-10 12:21:00,
2013-03-10 05:31:00,43.0,39.0,30.30,ESE,112,0.0,2.0,85,0.00,,,0.00,,2013-03-10 12:31:00,
2013-03-10 05:42:00,43.0,39.0,30.30,ESE,112,0.0,2.0,85,0.00,,,0.00,,2013-03-10 12:42:00,
2013-03-10 05:51:00,43.0,39.0,30.31,SE,126,0.0,0.0,85,0.00,,,0.00,,2013-03-10 12:51:00,
2013-03-10 06:01:00,42.0,38.0,30.31,SE,126,0.0,0.0,86,0.00,,,0.00,,2013-03-10 13:01:00,
2013-03-10 06:11:00,42.0,38.0,30.31,SE,126,0.0,0.0,86,0.00,,,0.00,,2013-03-10 13:11:00,
2013-03-10 06:21:00,41.0,37.0,30.31,SE,127,0.0,0.0,87,0.00,,,0.00,,2013-03-10 13:21:00,
2013-03-10 06:31:00,40.0,37.0,30.31,SE,127,0.0,0.0,88,0.00,,,0.00,,2013-03-10 13:31:00,
2013-03-10 06:41:00,40.0,37.0,30.31,SE,127,0.0,0.0,88,0.00,,,0.00,,2013-03-10 13:41:00,
2013-03-10 06:51:00,39.0,36.0,30.32,SE,127,0.0,0.0,89,0.00,,,0.00,,2013-03-10 13:51:00,
2013-03-10 07:01:00,40.0,37.0,30.32,SE,127,0.0,0.0,90,0.00,,,0.00,,2013-03-10 14:01:00,
2013-03-10 07:11:00,40.0,37.0,30.32,SE,127,0.0,0.0,90,0.00,,,0.00,,2013-03-10 14:11:00,
2013-03-10 07:21:00,40.0,37.0,30.32,SE,125,0.0,0.0,88,0.00,,,0.00,,2013-03-10 14:21:00,
2013-03-10 07:31:00,40.0,37.0,30.33,SE,126,0.0,0.0,88,0.00,,,0.00,,2013-03-10 14:31:00,
2013-03-10 07:41:00,40.0,37.0,30.33,SE,126,0.0,0.0,88,0.00,,,0.00,,2013-03-10 14:41:00,
2013-03-10 07:51:00,40.0,36.0,30.32,ENE,70,1.0,2.0,87,0.00,,,0.00,,2013-03-10 14:51:00,
2013-03-10 08:01:00,41.0,37.0,30.33,ENE,63,0.0,2.0,86,0.00,,,0.00,,2013-03-10 15:01:00,
2013-03-10 08:11:00,41.0,37.0,30.33,ENE,63,0.0,2.0,86,0.00,,,0.00,,2013-03-10 15:11:00,
2013-03-10 08:21:00,41.0,36.0,30.32,ENE,74,1.0,3.0,83,0.00,,,0.00,,2013-03-10 15:21:00,
2013-03-10 08:31:00,42.0,36.0,30.33,East,94,0.0,1.0,80,0.00,,,0.00,,2013-03-10 15:31:00,
2013-03-10 08:41:00,42.0,36.0,30.33,East,94,0.0,1.0,80,0.00,,,0.00,,2013-03-10 15:41:00,
2013-03-10 08:51:00,43.0,37.0,30.34,East,94,0.0,0.0,79,0.00,,,0.00,,2013-03-10 15:51:00,
2013-03-10 09:01:00,46.0,39.0,30.34,East,94,0.0,1.0,76,0.00,,,0.00,,2013-03-10 16:01:00,
2013-03-10 09:11:00,46.0,39.0,30.34,East,94,0.0,1.0,76,0.00,,,0.00,,2013-03-10 16:11:00,
2013-03-10 09:21:00,48.0,39.0,30.33,SE,137,1.0,2.0,72,0.00,,,0.00,,2013-03-10 16:21:00,
2013-03-10 09:31:00,51.0,42.0,30.34,SE,131,0.0,1.0,70,0.00,,,0.00,,2013-03-10 16:31:00,
2013-03-10 09:41:00,51.0,42.0,30.34,SE,131,0.0,1.0,70,0.00,,,0.00,,2013-03-10 16:41:00,
2013-03-10 09:51:00,53.0,42.0,30.34,SE,133,1.0,3.0,65,0.00,,,0.00,,2013-03-10 16:51:00,
2013-03-10 10:01:00,54.0,43.0,30.35,SSW,203,2.0,6.0,65,0.00,,,0.00,,2013-03-10 17:01:00,
2013-03-10 10:11:00,54.0,43.0,30.35,SSW,203,2.0,6.0,65,0.00,,,0.00,,2013-03-10 17:11:00,
2013-03-10 10:21:00,54.0,43.0,30.34,SW,229,1.0,5.0,67,0.00,,,0.00,,2013-03-10 17:21:00,
2013-03-10 10:31:00,54.0,43.0,30.34,SSW,204,2.0,6.0,67,0.00,,,0.00,,2013-03-10 17:31:00,
2013-03-10 10:41:00,54.0,43.0,30.34,SSW,204,2.0,6.0,67,0.00,,,0.00,,2013-03-10 17:41:00,
2013-03-10 10:51:00,55.0,43.0,30.34,South,179,3.0,6.0,65,0.00,,,0.00,,2013-03-10 17:51:00,
2013-03-10 11:01:00,56.0,44.0,30.33,ESE,109,2.0,7.0,65,0.00,,,0.00,,2013-03-10 18:01:00,
2013-03-10 11:11:00,57.0,45.0,30.33,South,176,3.0,7.0,63,0.00,,,0.00,,2013-03-10 18:11:00,
2013-03-10 11:21:00,57.0,45.0,30.33,South,176,3.0,7.0,63,0.00,,,0.00,,2013-03-10 18:21:00,
2013-03-10 11:31:00,58.0,45.0,30.33,WSW,242,2.0,6.0,63,0.00,,,0.00,,2013-03-10 18:31:00,
2013-03-10 11:41:00,58.0,45.0,30.33,WSW,242,2.0,6.0,63,0.00,,,0.00,,2013-03-10 18:41:00,
2013-03-10 11:52:00,59.0,46.0,30.32,SE,139,2.0,5.0,61,0.00,,,0.00,,2013-03-10 18:52:00,
2013-03-10 12:01:00,59.0,46.0,30.32,SSE,162,0.0,6.0,61,0.00,,,0.00,,2013-03-10 19:01:00,
2013-03-10 12:11:00,59.0,46.0,30.32,SSE,162,0.0,6.0,61,0.00,,,0.00,,2013-03-10 19:11:00,
2013-03-10 12:21:00,60.0,47.0,30.32,ESE,123,1.0,4.0,61,0.00,,,0.00,,2013-03-10 19:21:00,
2013-03-10 12:31:00,61.0,47.0,30.32,ESE,114,1.0,5.0,60,0.00,,,0.00,,2013-03-10 19:31:00,
2013-03-10 12:41:00,61.0,47.0,30.32,ESE,114,1.0,5.0,60,0.00,,,0.00,,2013-03-10 19:41:00,
2013-03-10 12:52:00,60.0,46.0,30.32,SE,144,1.0,3.0,59,0.00,,,0.00,,2013-03-10 19:52:00,
2013-03-10 13:02:00,61.0,46.0,30.30,SE,146,2.0,6.0,58,0.00,,,0.00,,2013-03-10 20:02:00,
2013-03-10 13:12:00,61.0,46.0,30.30,SE,146,2.0,6.0,58,0.00,,,0.00,,2013-03-10 20:12:00,
2013-03-10 13:21:00,61.0,46.0,30.30,SE,133,2.0,5.0,57,0.00,,,0.00,,2013-03-10 20:21:00,
2013-03-10 13:32:00,63.0,47.0,30.29,NE,44,0.0,6.0,56,0.00,,,0.00,,2013-03-10 20:32:00,
2013-03-10 13:42:00,63.0,47.0,30.29,NE,44,0.0,6.0,56,0.00,,,0.00,,2013-03-10 20:42:00,
2013-03-10 13:52:00,64.0,47.0,30.29,SW,236,0.0,5.0,54,0.00,,,0.00,,2013-03-10 20:52:00,
2013-03-10 14:02:00,64.0,46.0,30.28,SSE,168,1.0,4.0,52,0.00,,,0.00,,2013-03-10 21:02:00,
2013-03-10 14:12:00,64.0,46.0,30.28,SSE,168,1.0,4.0,52,0.00,,,0.00,,2013-03-10 21:12:00,
2013-03-10 14:22:00,64.0,45.0,30.27,SW,222,1.0,4.0,50,0.00,,,0.00,,2013-03-10 21:22:00,
2013-03-10 14:32:00,64.0,46.0,30.27,West,262,2.0,6.0,52,0.00,,,0.00,,2013-03-10 21:32:00,
2013-03-10 14:42:00,64.0,46.0,30.27,West,262,2.0,6.0,52,0.00,,,0.00,,2013-03-10 21:42:00,
2013-03-10 14:51:00,65.0,45.0,30.26,SW,222,2.0,6.0,48,0.00,,,0.00,,2013-03-10 21:51:00,
2013-03-10 15:02:00,65.0,44.0,30.26,WSW,248,3.0,7.0,47,0.00,,,0.00,,2013-03-10 22:02:00,
2013-03-10 15:12:00,65.0,44.0,30.26,WSW,248,3.0,7.0,47,0.00,,,0.00,,2013-03-10 22:12:00,
2013-03-10 15:21:00,65.0,44.0,30.26,WSW,248,3.0,7.0,47,0.00,,,0.00,,2013-03-10 22:21:00,
2013-03-10 15:32:00,66.0,43.0,30.26,ENE,57,2.0,3.0,43,0.00,,,0.00,,2013-03-10 22:32:00,
2013-03-10 15:43:00,66.0,43.0,30.26,ENE,57,2.0,3.0,43,0.00,,,0.00,,2013-03-10 22:43:00,
2013-03-10 15:53:00,67.0,45.0,30.25,SW,235,0.0,4.0,45,0.00,,,0.00,,2013-03-10 22:53:00,
2013-03-10 16:02:00,68.0,46.0,30.25,SE,129,1.0,5.0,45,0.00,,,0.00,,2013-03-10 23:02:00,
2013-03-10 16:12:00,68.0,44.0,30.25,West,263,1.0,4.0,42,0.00,,,0.00,,2013-03-10 23:12:00,
2013-03-10 16:22:00,68.0,44.0,30.25,West,263,1.0,4.0,42,0.00,,,0.00,,2013-03-10 23:22:00,
2013-03-10 16:32:00,69.0,45.0,30.24,SSW,207,2.0,6.0,42,0.00,,,0.00,,2013-03-10 23:32:00,
2013-03-10 16:42:00,69.0,45.0,30.24,SSW,207,2.0,6.0,42,0.00,,,0.00,,2013-03-10 23:42:00,
2013-03-10 16:51:00,69.0,45.0,30.24,ENE,72,1.0,5.0,42,0.00,,,0.00,,2013-03-10 23:51:00,
2013-03-10 17:02:00,68.0,45.0,30.24,East,82,2.0,7.0,44,0.00,,,0.00,,2013-03-11 00:02:00,
2013-03-10 17:12:00,68.0,45.0,30.24,East,82,2.0,7.0,44,0.00,,,0.00,,2013-03-11 00:12:00,
2013-03-10 17:22:00,67.0,45.0,30.24,SE,128,2.0,6.0,45,0.00,,,0.00,,2013-03-11 00:22:00,
2013-03-10 17:32:00,67.0,45.0,30.23,SE,136,1.0,5.0,45,0.00,,,0.00,,2013-03-11 00:32:00,
2013-03-10 17:42:00,67.0,45.0,30.23,SE,136,1.0,5.0,45,0.00,,,0.00,,2013-03-11 00:42:00,
2013-03-10 17:52:00,67.0,46.0,30.23,SSW,193,2.0,7.0,46,0.00,,,0.00,,2013-03-11 00:52:00,
2013-03-10 18:02:00,67.0,46.0,30.22,SE,124,1.0,5.0,46,0.00,,,0.00,,2013-03-11 01:02:00,
2013-03-10 18:12:00,67.0,46.0,30.22,SE,124,1.0,5.0,46,0.00,,,0.00,,2013-03-11 01:12:00,
2013-03-10 18:22:00,66.0,45.0,30.22,ESE,117,2.0,5.0,46,0.00,,,0.00,,2013-03-11 01:22:00,
2013-03-10 18:32:00,65.0,44.0,30.22,East,81,2.0,5.0,46,0.00,,,0.00,,2013-03-11 01:32:00,
2013-03-10 18:42:00,65.0,44.0,30.22,East,81,2.0,5.0,46,0.00,,,0.00,,2013-03-11 01:42:00,
2013-03-10 18:52:00,65.0,44.0,30.23,SE,132,0.0,4.0,46,0.00,,,0.00,,2013-03-11 01:52:00,
2013-03-10 19:02:00,64.0,43.0,30.23,SE,131,0.0,3.0,47,0.00,,,0.00,,2013-03-11 02:02:00,
2013-03-10 19:12:00,64.0,43.0,30.23,SE,131,0.0,3.0,47,0.00,,,0.00,,2013-03-11 02:12:00,
2013-03-10 19:21:00,63.0,44.0,30.22,ESE,120,1.0,2.0,50,0.00,,,0.00,,2013-03-11 02:21:00,
2013-03-10 19:32:00,62.0,45.0,30.22,SE,124,0.0,2.0,53,0.00,,,0.00,,2013-03-11 02:32:00,
2013-03-10 19:42:00,62.0,45.0,30.22,SE,124,0.0,2.0,53,0.00,,,0.00,,2013-03-11 02:42:00,
2013-03-10 19:52:00,61.0,44.0,30.23,SE,128,0.0,1.0,53,0.00,,,0.00,,2013-03-11 02:52:00,
2013-03-10 20:02:00,60.0,44.0,30.23,SE,128,0.0,1.0,55,0.00,,,0.00,,2013-03-11 03:02:00,
2013-03-10 20:12:00,60.0,44.0,30.23,SE,128,0.0,1.0,55,0.00,,,0.00,,2013-03-11 03:12:00,
2013-03-10 20:21:00,58.0,43.0,30.23,SE,128,0.0,0.0,58,0.00,,,0.00,,2013-03-11 03:21:00,
2013-03-10 20:32:00,58.0,44.0,30.23,SE,129,0.0,0.0,59,0.00,,,0.00,,2013-03-11 03:32:00,
2013-03-10 20:42:00,58.0,44.0,30.23,SE,129,0.0,0.0,59,0.00,,,0.00,,2013-03-11 03:42:00,
2013-03-10 20:51:00,56.0,43.0,30.23,SE,128,0.0,0.0,62,0.00,,,0.00,,2013-03-11 03:51:00,
2013-03-10 21:02:00,56.0,44.0,30.23,SE,129,0.0,0.0,64,0.00,,,0.00,,2013-03-11 04:02:00,
2013-03-10 21:12:00,56.0,44.0,30.23,SE,129,0.0,0.0,64,0.00,,,0.00,,2013-03-11 04:12:00,
2013-03-10 21:22:00,55.0,43.0,30.23,SE,128,0.0,0.0,65,0.00,,,0.00,,2013-03-11 04:22:00,
2013-03-10 21:32:00,54.0,44.0,30.23,SE,128,0.0,0.0,68,0.00,,,0.00,,2013-03-11 04:32:00,
2013-03-10 21:42:00,54.0,44.0,30.23,SE,128,0.0,0.0,68,0.00,,,0.00,,2013-03-11 04:42:00,
2013-03-10 21:52:00,53.0,43.0,30.23,SE,128,0.0,0.0,69,0.00,,,0.00,,2013-03-11 04:52:00,
2013-03-10 22:11:00,52.0,43.0,30.23,SE,129,0.0,0.0,71,0.00,,,0.00,,2013-03-11 05:11:00,
2013-03-10 22:21:00,52.0,44.0,30.23,SE,128,0.0,1.0,73,0.00,,,0.00,,2013-03-11 05:21:00,
2013-03-10 22:32:00,52.0,44.0,30.23,SE,129,0.0,0.0,74,0.00,,,0.00,,2013-03-11 05:32:00,
2013-03-10 22:42:00,52.0,44.0,30.23,SE,129,0.0,0.0,74,0.00,,,0.00,,2013-03-11 05:42:00,
2013-03-10 22:51:00,51.0,43.0,30.23,SE,129,0.0,0.0,75,0.00,,,0.00,,2013-03-11 05:51:00,
2013-03-10 23:02:00,50.0,43.0,30.23,SE,129,0.0,0.0,77,0.00,,,0.00,,2013-03-11 06:02:00,
2013-03-10 23:11:00,50.0,43.0,30.23,SE,129,0.0,0.0,77,0.00,,,0.00,,2013-03-11 06:11:00,
2013-03-10 23:21:00,50.0,43.0,30.24,SE,129,0.0,0.0,78,0.00,,,0.00,,2013-03-11 06:21:00,
2013-03-10 23:32:00,49.0,43.0,30.24,SE,129,0.0,0.0,80,0.00,,,0.00,,2013-03-11 06:32:00,
2013-03-10 23:42:00,49.0,43.0,30.24,SE,129,0.0,0.0,80,0.00,,,0.00,,2013-03-11 06:42:00,
2013-03-10 23:52:00,49.0,43.0,30.23,SE,129,0.0,0.0,81,0.00,,,0.00,,2013-03-11 06:52:00,